Home > Weather > Stockholm > Past weeks

Flag for Sweden Weather for the Past 2 Weeks in Stockholm, Sweden

Now
32 °F

Low clouds.


Feels Like: 26 °F
Forecast: 31 / 34 °F
Wind: 6 mph from Southeast

Location: Stockholm Bromma Airport

Current Time: Feb 14, 2016 at 12:57:52 AM

Latest Report: Feb 14, 2016 at 12:20 AM


Visibility: N/A

Pressure: 29.47 "Hg

Humidity: 93%

Dew point: 30 °F

Location of StockholmLocation

Historic Weather in Stockholm — Graph

°F

Stockholm Temperature Yesterday

Maximum temperature yesterday: 34 °F (at 12:20 PM)
Minimum temperature yesterday: 28 °F (at 12:20 AM)
Average temperature yesterday: 31 °F

High & Low Weather Summary for the Past Weeks

 TemperatureHumidityPressure
High45 °F (Jan 29, 11:20 PM)100% (Feb 1, 8:20 PM)29.92 "Hg (Feb 1, 8:20 PM)
Low21 °F (Feb 5, 10:50 PM)51% (Feb 13, 2:20 PM)28.85 "Hg (Feb 2, 3:50 AM)
Average35 °F83%29.31 "Hg
* Reported Jan 29 11:20 PM — Feb 13 11:50 PM, Stockholm, Weather by CustomWeather, © 2016

Note: Actual official high and low records may vary slightly from our data, if they occured in-between our weather recording intervals... More about our weather records

Advertising

Stockholm Weather History for the Previous 24 Hours

 ConditionsComfort  
Time TempWeatherWind HumidityBarometerVisibility
11:50 PM
Sat, Feb 13
32 °FMostly cloudy.5 mph93%29.47 "HgN/A
11:20 PM32 °FLow clouds.5 mph87%29.47 "HgN/A
10:50 PM32 °FLow clouds.3 mph87%29.47 "HgN/A
10:20 PM32 °FLow clouds.5 mph87%29.50 "HgN/A
9:50 PM32 °FSnow flurries. Low clouds.2 mph87%29.50 "HgN/A
9:20 PM30 °FLow clouds.2 mph86%29.50 "HgN/A
8:50 PM32 °FLow clouds.2 mph80%29.50 "HgN/A
8:20 PM32 °FOvercast.3 mph80%29.50 "HgN/A
7:50 PM30 °FLight snow. Mostly cloudy.3 mph75%29.50 "HgN/A
7:20 PM30 °FPartly cloudy.2 mph75%29.50 "HgN/A
6:50 PM32 °FMostly cloudy.2 mph64%29.53 "HgN/A
6:20 PM32 °FOvercast.6 mph64%29.53 "HgN/A
5:50 PM32 °FOvercast.6 mph69%29.53 "HgN/A
5:20 PM32 °FOvercast.6 mph69%29.53 "HgN/A
4:50 PM32 °FPassing clouds.5 mph64%29.53 "HgN/A
4:20 PM32 °FPassing clouds.6 mph64%29.53 "HgN/A
3:50 PM32 °FPassing clouds.7 mph60%29.53 "HgN/A
3:20 PM32 °FSunny.9 mph55%29.53 "Hg10 mi
2:50 PM32 °FSunny.9 mph60%29.53 "Hg10 mi
2:20 PM34 °FPassing clouds.12 mph51%29.53 "HgN/A
1:50 PM34 °FPassing clouds.12 mph56%29.53 "HgN/A
1:20 PM34 °FScattered clouds.12 mph56%29.53 "HgN/A
12:50 PM34 °FPassing clouds.10 mph60%29.53 "HgN/A
12:20 PM34 °FPassing clouds.10 mph60%29.53 "HgN/A
11:50 AM32 °FSunny.10 mph64%29.53 "Hg10 mi
11:20 AM30 °FPassing clouds.9 mph64%29.53 "HgN/A
10:50 AM30 °FPassing clouds.10 mph64%29.53 "HgN/A
10:20 AM30 °FPassing clouds.10 mph69%29.50 "HgN/A
9:50 AM30 °FPassing clouds.8 mph69%29.50 "HgN/A
9:20 AM28 °FScattered clouds.6 mph74%29.50 "HgN/A
8:50 AM28 °FScattered clouds.6 mph74%29.50 "HgN/A
8:20 AM28 °FPartly sunny.6 mph74%29.47 "HgN/A
7:50 AM28 °FPartly sunny.7 mph74%29.47 "HgN/A
7:20 AM28 °FOvercast.6 mph74%29.47 "HgN/A
6:50 AM28 °FMostly cloudy.7 mph80%29.47 "HgN/A
6:20 AM28 °FMostly cloudy.7 mph80%29.45 "HgN/A
5:50 AM28 °FLight snow. Overcast.6 mph80%29.45 "HgN/A
5:20 AM28 °FOvercast.6 mph80%29.45 "HgN/A
4:50 AM28 °FOvercast.7 mph80%29.45 "HgN/A
4:20 AM28 °FOvercast.7 mph80%29.45 "HgN/A
3:20 AM28 °FMostly cloudy.7 mph86%29.45 "HgN/A
2:20 AM28 °FMostly cloudy.5 mph86%29.42 "HgN/A
1:50 AM28 °FMostly cloudy.5 mph86%29.42 "HgN/A
1:20 AM28 °FOvercast.5 mph86%29.42 "HgN/A
12:50 AM28 °FLight snow. Partly cloudy.6 mph93%29.42 "Hg2 mi
12:20 AM28 °FOvercast.7 mph93%29.42 "HgN/A
Weather by CustomWeather, © 2016

See weather overviewHow to use our weather pages